Watsonville, CA

7:02 AM PST on December 16, 2017 (GMT -0800)
Watsonville Municipal

Weather History for KWVI - October, 2014

Change the Weather History Date:

Wednesday, October 1, 2014

  Actual Average Record
Temperature  
Mean Temperature 70 °F 62 °F  
Max Temperature 87 °F 74 °F 101 °F (2012)
Min Temperature 53 °F 50 °F 43 °F (2016)
Degree Days  
Heating Degree Days 0    
Month to date heating degree days 0  
Since 1 July heating degree days 24  
Cooling Degree Days 5    
Month to date cooling degree days 5  
Year to date cooling degree days 268  
Growing Degree Days 19 (Base 50)    
Moisture  
Dew Point 52 °F    
Average Humidity 56    
Maximum Humidity 89    
Minimum Humidity 23    
Precipitation  
Precipitation 0.00 in - 0.52 in (1976)
Month to date precipitation 0.00  
Year to date precipitation 8.65  
Since 1 July precipitation 0.47  
Sea Level Pressure  
Sea Level Pressure 29.91 in    
Wind  
Wind Speed 5 mph (WNW)    
Max Wind Speed 13 mph    
Max Gust Speed 14 mph    
Visibility 8 miles    
Events Fog    
T = Trace of Precipitation, MM = Missing Value Source: NWS Daily Summary

Daily Weather History Graph

Daily Weather History Graph

Search for Another Location

Airport or City:

Trip Planner

Search our weather history database for the weather conditions in past years. The results will help you decide how hot, cold, wet, or windy it might be!

Date:

Astronomy

Oct. 01, 2014 Rise Set
Actual Time 7:02 AM PDT 6:50 PM PDT
Civil Twilight 6:36 AM PDT 7:16 PM PDT
Nautical Twilight 6:06 AM PDT 7:46 PM PDT
Astronomical Twilight 5:36 AM PDT 8:16 PM PDT
Moon 2:01 PM PDT (10/1) No Moon Set
Length of Visible Light 12h 39m
Length of Day
11h 47m
Waxing Crescent, 50% of the Moon is Illuminated
Oct 1
Waxing Crescent
Oct 1
First Quarter
Oct 8
Full
Oct 15
Last Quarter
Oct 23
New

Hourly Weather History & Observations

Time (PDT) Temp. Dew Point Humidity Pressure Visibility Wind Dir Wind Speed Gust Speed Precip Events Conditions
12:53 AM 57.9 °F 54.0 °F 87% 30.00 in 10.0 mi NW 3.5 mph - N/A   Clear
1:53 AM 57.0 °F 53.1 °F 87% 29.86 in 10.0 mi NW 3.5 mph - N/A   Clear
2:53 AM 57.0 °F 53.1 °F 87% 29.85 in 10.0 mi WNW 4.6 mph - N/A   Clear
3:53 AM 55.9 °F 52.0 °F 87% 29.85 in 10.0 mi WNW 4.6 mph - N/A   Clear
4:53 AM 55.0 °F 52.0 °F 89% 29.86 in 10.0 mi NNW 4.6 mph - N/A   Clear
5:53 AM 55.0 °F 51.1 °F 86% 29.86 in 10.0 mi NW 3.5 mph - N/A   Clear
6:29 AM 59.0 °F 55.9 °F 90% 29.98 in 2.0 mi Calm Calm - N/A   Overcast
6:53 AM 54.0 °F 50.0 °F 86% 29.87 in 10.0 mi NNW 3.5 mph - N/A   Clear
7:13 AM 57.9 °F 55.9 °F 93% 29.98 in 1.8 mi Calm Calm - N/A   Overcast
7:28 AM 59.0 °F 55.9 °F 90% 29.99 in 1.0 mi Calm Calm - N/A   Overcast
7:42 AM 59.0 °F 55.9 °F 90% 29.99 in 0.5 mi Calm Calm - N/A Fog Fog
7:53 AM 59.0 °F 55.9 °F 90% 29.99 in 0.8 mi NE 4.6 mph - N/A   Overcast
8:53 AM 62.1 °F 55.0 °F 78% 29.90 in 10.0 mi Calm Calm - N/A   Clear
9:53 AM 69.1 °F 55.0 °F 61% 29.90 in 10.0 mi East 3.5 mph - N/A   Clear
10:53 AM 60.1 °F 57.0 °F 90% 29.99 in 5.0 mi West 4.6 mph - N/A   Overcast
11:14 AM 61.0 °F 57.0 °F 87% 29.98 in 6.0 mi WSW 4.6 mph - N/A   Overcast
11:37 AM 62.1 °F 57.0 °F 84% 29.97 in 6.0 mi WSW 4.6 mph - N/A   Haze
11:53 AM 81.0 °F 48.9 °F 33% 29.89 in 10.0 mi Variable 3.5 mph - N/A   Clear
12:45 PM 66.9 °F 57.0 °F 70% 29.95 in 10.0 mi SE 3.5 mph - N/A   Scattered Clouds
12:53 PM 66.9 °F 57.0 °F 70% 29.95 in 10.0 mi ESE 5.8 mph - N/A   Partly Cloudy
1:53 PM 84.9 °F 46.9 °F 27% 29.86 in 10.0 mi Variable 5.8 mph - N/A   Clear
2:53 PM 84.9 °F 45.0 °F 25% 29.84 in 10.0 mi West 9.2 mph - N/A   Clear
3:53 PM 84.0 °F 43.0 °F 24% 29.84 in 10.0 mi SW 9.2 mph - N/A   Clear
4:53 PM 84.0 °F 44.1 °F 25% 29.84 in 10.0 mi WNW 6.9 mph - N/A   Clear
5:53 PM 84.9 °F 42.1 °F 22% 29.85 in 10.0 mi Calm Calm - N/A   Clear
6:53 PM 73.0 °F 52.0 °F 48% 29.86 in 10.0 mi SSW 4.6 mph - N/A   Clear
7:53 PM 64.9 °F 55.9 °F 73% 29.88 in 10.0 mi SSW 4.6 mph - N/A   Clear
8:53 PM 64.9 °F 57.0 °F 75% 29.91 in 10.0 mi NW 3.5 mph - N/A   Clear
9:53 PM 64.0 °F 46.0 °F 52% 29.91 in 10.0 mi NW 6.9 mph - N/A   Clear
10:53 PM 63.0 °F 45.0 °F 52% 29.93 in 10.0 mi WNW 3.5 mph - N/A   Clear
11:53 PM 62.1 °F 43.0 °F 50% 29.93 in 10.0 mi NW 6.9 mph - N/A   Clear